[[{"header":{"parameterUnit":"m.s-1","parameterCategory":1,"la1":30.2991,"la2":30.254,"lo1":-89.0895,"lo2":-89.0444,"dy":0.0017,"dx":0.0017,"nx":28,"ny":28,"refTime":"2024-04-25T21:00:00:Z","depth":0,"parameterNumber":2,"parameterNumberName":"U-component_of_WINDS"},"data":[0,0,0,0,0,0,0,0,0,0,0,0,0,0,0,0,0,0,0,0,0,0,0,0,0,0,0,0,0,0,0,0,0,0,0,0,0,0,0,0,0,0,0,0,0,0,0,0,0,0,0,0,0,0,0,0,0,0,-5.7138,-5.7139,0,-5.7262,-5.7264,-5.7265,-5.7248,-5.7246,-5.7244,-5.7242,-5.7366,-5.7371,-5.7376,0,0,0,0,0,0,0,0,0,0,0,0,0,-5.6884,-5.6889,-5.7138,-5.714,-5.7141,-5.7262,-5.7264,-5.7265,-5.7249,-5.7246,-5.7244,-5.7241,-5.7364,-5.737,-5.7376,0,0,0,0,0,0,0,0,0,0,0,0,0,-5.7,-5.689,-5.7138,-5.7147,-5.715,-5.7262,-5.7264,-5.7266,-5.7249,-5.7246,-5.7243,-5.724,-5.7362,-5.7369,-5.7377,-5.7486,0,0,-5.7401,-5.7404,0,0,0,0,0,0,0,0,-5.6993,-5.7009,-5.7144,-5.7147,-5.715,-5.7237,-5.7219,-5.734,-5.725,-5.7211,-5.7242,-5.7239,-5.7325,-5.7335,-5.7365,-5.7492,-5.7497,-5.7401,-5.7406,-5.741,-5.7412,0,0,0,0,0,0,0,-5.6985,-5.7004,-5.7187,-5.7146,-5.715,-5.7145,-5.7158,-5.7242,-5.7283,-5.7214,-5.7213,-5.7228,-5.7326,-5.7358,-5.7368,-5.7499,-5.7401,-5.7408,-5.7413,-5.7416,-5.7721,-5.7724,0,0,0,0,0,0,-5.6975,-5.6997,-5.7183,-5.7191,-5.7062,-5.7152,-5.7166,-5.7212,-5.7283,-5.7291,-5.7231,-5.7227,-5.7346,-5.7359,-5.7372,-5.7503,-5.7409,-5.7417,-5.7421,-5.7717,-5.7721,-5.7725,0,0,0,0,0,0,-5.697,-5.6992,-5.7178,-5.7094,-5.7117,-5.7159,-5.721,-5.7216,-5.7248,-5.7295,-5.7302,-5.7256,-5.7344,-5.7361,-5.7458,-5.7507,-5.742,-5.7427,-5.7713,-5.7719,-5.7723,-5.7767,0,0,0,0,0,0,-5.6962,-5.699,-5.7032,-5.7095,-5.7122,-5.7262,-5.7214,-5.722,-5.7262,-5.7258,-5.7321,-5.7328,-5.7343,-5.7447,-5.7466,-5.7517,-5.7433,-5.7709,-5.7716,-5.7722,-5.7761,-5.7773,-5.7783,0,0,0,0,0,-5.6953,-5.7039,-5.7034,-5.7057,-5.7176,-5.7265,-5.728,-5.7297,-5.7266,-5.7308,-5.7339,-5.7326,-5.75,-5.7457,-5.7478,-5.7532,-5.7706,-5.7714,-5.7721,-5.7756,-5.7771,-5.7783,0,0,0,0,0,0,-5.6979,-5.7047,-5.7043,-5.7152,-5.7203,-5.7262,-5.7316,-5.7312,-5.7372,-5.7365,-5.7382,-5.7397,-5.7494,-5.7523,-5.7474,-5.7641,-5.7598,-5.7611,-5.7618,-5.7632,-5.7643,-5.7632,-5.744,0,0,0,0,0,-5.6998,-5.7067,-5.7122,-5.7212,-5.7239,-5.7273,-5.7313,-5.7321,-5.7375,-5.7396,-5.7433,-5.7485,-5.7551,-5.7593,-5.7657,-5.7767,-5.7779,-5.7815,-5.7826,-5.7834,-5.7844,-5.7903,-5.7918,-5.7751,-5.775,-5.775,0,0,-5.7037,-5.7083,-5.7124,-5.7219,-5.7259,-5.7328,-5.7291,-5.7366,-5.7417,-5.7407,-5.75,-5.753,-5.7588,-5.7692,-5.7739,-5.7719,-5.7893,-5.7844,-5.7851,-5.7855,-5.7912,-5.7928,-5.7942,-5.7756,-5.7755,-5.7754,0,0,-5.7142,-5.7185,-5.7264,-5.7306,-5.7369,-5.7392,-5.7411,-5.7472,-5.7491,-5.7586,-5.7579,-5.764,-5.7754,-5.7795,-5.7831,-5.7955,-5.7944,-5.7975,-5.803,-5.8088,-5.8101,-5.8112,-5.8154,-5.8169,-5.7985,-5.7985,-5.7985,0,-5.7181,-5.7286,-5.7305,-5.7381,-5.7422,-5.7418,-5.7498,-5.7538,-5.7617,-5.7645,-5.7623,-5.7765,-5.7804,-5.7917,-5.7947,-5.7977,-5.7998,-5.7966,-5.8098,-5.811,-5.8121,-5.8161,-5.8176,-5.7988,-5.7988,-5.7987,-5.7987,0,-5.733,-5.7403,-5.746,-5.7538,-5.7586,-5.7664,-5.7693,-5.774,-5.7745,-5.777,-5.7866,-5.7913,-5.7986,-5.8014,-5.8019,-5.8127,-5.8113,-5.8094,-5.8051,-5.8139,-5.8177,-5.8193,-5.7992,-5.7991,-5.799,-5.799,0,0,-5.7452,-5.7541,-5.7561,-5.7597,-5.7667,-5.7723,-5.78,-5.7873,-5.7911,-5.7967,-5.8031,-5.8129,-5.8112,-5.8153,-5.8163,-5.8214,-5.8306,-5.8189,-5.819,-5.8206,-5.8426,-5.8437,-5.8454,-5.8302,-5.8305,-5.8307,-5.842,0,-5.7561,-5.7699,-5.7719,-5.7839,-5.7906,-5.7904,-5.7972,-5.8021,-5.8048,-5.8107,-5.8136,-5.8204,-5.8178,-5.8202,-5.8253,-5.8284,-5.835,-5.8277,-5.8359,-5.8362,-5.8341,-5.8475,-5.8487,-5.8591,-5.8435,-5.8438,-5.8439,0,-5.7707,-5.7768,-5.7895,-5.7956,-5.7985,-5.8045,-5.8112,-5.8171,-5.8227,-5.8242,-5.8289,-5.8294,-5.8373,-5.833,-5.8438,-5.8388,-5.8423,-5.8444,-5.8448,-5.8453,-5.8403,-5.848,-5.8624,-5.8639,-5.8463,-5.8461,-5.846,0,-5.7779,-5.7894,-5.7984,-5.8015,-5.8089,-5.8131,-5.8164,-5.8217,-5.826,-5.8319,-5.8346,-5.8414,-5.8451,-5.8503,-5.8525,-5.8492,-5.8632,-5.859,-5.8645,-5.8644,-5.8671,-5.8668,-5.8819,-5.87,-5.8699,-5.8699,-5.8699,0,-5.7897,-5.7975,-5.8018,-5.8073,-5.8159,-5.8182,-5.8267,-5.8298,-5.8346,-5.8407,-5.8411,-5.8468,-5.8495,-5.8556,-5.8575,-5.866,-5.8678,-5.8691,-5.8694,-5.8689,-5.8686,-5.8709,-5.8701,-5.8703,-5.8702,-5.8701,-5.8701,0,-5.7991,-5.8024,-5.8122,-5.8185,-5.8202,-5.8263,-5.8316,-5.837,-5.8397,-5.8473,-5.8493,-5.8534,-5.8606,-5.8635,-5.8723,-5.8735,-5.8833,-5.8833,-5.8814,-5.8814,-5.8866,-5.8859,-5.9034,-5.9057,-5.8925,-5.8926,-5.8927,0,-5.8063,-5.8122,-5.8192,-5.8234,-5.8268,-5.8335,-5.8378,-5.8404,-5.8449,-5.8518,-5.8563,-5.8635,-5.8693,-5.8808,-5.8846,-5.8913,-5.8912,-5.8969,-5.8922,-5.8914,-5.8909,-5.8904,-5.8909,-5.8976,-5.8977,-5.8978,-5.8979,0,-5.8186,-5.8199,-5.8262,-5.8331,-5.8383,-5.8438,-5.8492,-5.8526,-5.8559,-5.861,-5.8684,-5.873,-5.882,-5.8891,-5.8961,-5.8993,-5.8991,-5.8995,-5.901,-5.9003,-5.8989,-5.8994,-5.8834,-5.8989,-5.8988,-5.8987,-5.8987,-5.8987,-5.8269,-5.8321,-5.8378,-5.8448,-5.8492,-5.8542,-5.8595,-5.863,-5.8692,-5.8768,-5.878,-5.8859,-5.8914,-5.9007,-5.9043,-5.9105,-5.909,-5.9113,-5.9118,-5.9123,-5.9125,-5.8982,-5.9118,-5.9118,-5.9117,-5.9117,-5.9117,0,-5.8389,-5.8426,-5.8491,-5.8566,-5.8621,-5.8618,-5.8677,-5.8723,-5.8793,-5.8845,-5.8903,-5.8988,-5.9058,-5.9102,-5.9171,-5.9212,-5.9213,-5.9229,-5.9224,-5.9231,-5.9135,-5.9114,-5.9227,-5.9227,-5.9227,-5.9227,-5.9227,-5.9227,-5.8458,-5.8546,-5.8566,-5.8676,-5.8713,-5.879,-5.8825,-5.8871,-5.8913,-5.9007,-5.9065,-5.9094,-5.9143,-5.9217,-5.928,-5.9291,-5.9315,-5.9332,-5.9341,-5.925,-5.9238,-5.9227,-5.9207,-5.9338,-5.9338,-5.9432,-5.9433,-5.9433]},{"header":{"parameterUnit":"m.s-1","parameterCategory":1,"la1":30.2991,"la2":30.254,"lo1":-89.0895,"lo2":-89.0444,"dy":0.0017,"dx":0.0017,"nx":28,"ny":28,"refTime":"2024-04-25T21:00:00:Z","depth":0,"parameterNumber":3,"parameterNumberName":"V-component_of_WINDS"},"data":[0,0,0,0,0,0,0,0,0,0,0,0,0,0,0,0,0,0,0,0,0,0,0,0,0,0,0,0,0,0,0,0,0,0,0,0,0,0,0,0,0,0,0,0,0,0,0,0,0,0,0,0,0,0,0,0,0,0,3.8187,3.8187,0,3.8193,3.8193,3.8193,3.8149,3.8148,3.8147,3.8146,3.8151,3.8152,3.8153,0,0,0,0,0,0,0,0,0,0,0,0,0,3.8138,3.8139,3.8187,3.8187,3.8187,3.8193,3.8193,3.8193,3.8149,3.8148,3.8146,3.8145,3.815,3.8152,3.8153,0,0,0,0,0,0,0,0,0,0,0,0,0,3.8153,3.814,3.8187,3.8166,3.8164,3.8193,3.8193,3.8193,3.815,3.8148,3.8146,3.8144,3.815,3.8152,3.8154,3.8202,0,0,3.816,3.816,0,0,0,0,0,0,0,0,3.8153,3.8155,3.8169,3.8167,3.8165,3.8168,3.8178,3.8196,3.815,3.8155,3.8145,3.8143,3.8158,3.8159,3.8164,3.8203,3.8203,3.816,3.8161,3.8162,3.8162,0,0,0,0,0,0,0,3.8152,3.8155,3.8189,3.8169,3.8167,3.8156,3.8157,3.8181,3.8167,3.8155,3.8151,3.8153,3.8157,3.8163,3.8164,3.8203,3.816,3.8161,3.8163,3.8163,3.8283,3.8285,0,0,0,0,0,0,3.8153,3.8154,3.8189,3.8189,3.8154,3.8159,3.8159,3.8169,3.8166,3.8164,3.8154,3.8151,3.816,3.8162,3.8164,3.8222,3.8162,3.8163,3.8165,3.8281,3.8283,3.8285,0,0,0,0,0,0,3.8152,3.8157,3.8189,3.8171,3.8174,3.8162,3.8174,3.817,3.8176,3.8166,3.8163,3.8163,3.8159,3.8161,3.8194,3.8221,3.8164,3.8166,3.8278,3.8282,3.8284,3.8337,0,0,0,0,0,0,3.8151,3.8157,3.8175,3.8172,3.8175,3.8218,3.8175,3.8172,3.818,3.8175,3.8173,3.8171,3.8158,3.8191,3.8195,3.8223,3.8168,3.8276,3.828,3.8283,3.8332,3.8341,3.8348,0,0,0,0,0,3.815,3.8189,3.8176,3.818,3.8198,3.822,3.8222,3.8205,3.8182,3.82,3.8194,3.8172,3.8218,3.8195,3.8199,3.8228,3.8274,3.8279,3.8283,3.8329,3.8339,3.8348,0,0,0,0,0,0,3.8195,3.8188,3.8174,3.8213,3.8217,3.8212,3.8234,3.8217,3.8227,3.8222,3.8201,3.8201,3.8237,3.8236,3.821,3.8275,3.8242,3.8248,3.8275,3.8285,3.8293,3.8292,3.8169,0,0,0,0,0,3.8209,3.8228,3.8221,3.8256,3.8259,3.8247,3.8256,3.8243,3.8246,3.8248,3.8244,3.8248,3.8264,3.8274,3.8288,3.8332,3.8332,3.8354,3.8362,3.8369,3.8374,3.8398,3.8409,3.83,3.83,3.83,0,0,3.8239,3.8238,3.8251,3.8265,3.8267,3.8287,3.8248,3.8271,3.8285,3.8251,3.8281,3.8279,3.8282,3.8321,3.8338,3.8321,3.8404,3.8375,3.838,3.8382,3.8404,3.8414,3.8424,3.8304,3.8303,3.8302,0,0,3.8304,3.8305,3.8335,3.8338,3.8342,3.8334,3.8341,3.8339,3.8337,3.8367,3.8342,3.836,3.8386,3.839,3.8396,3.8465,3.8445,3.847,3.8512,3.8536,3.8544,3.8552,3.8577,3.8586,3.8475,3.8475,3.8475,0,3.8341,3.837,3.8353,3.8377,3.8385,3.8356,3.8386,3.839,3.8398,3.8404,3.8385,3.842,3.842,3.846,3.8477,3.8482,3.849,3.8469,3.8545,3.8552,3.8559,3.8582,3.8592,3.8478,3.8478,3.8478,3.8477,0,3.8415,3.8436,3.846,3.8469,3.848,3.8507,3.8494,3.8507,3.8494,3.8488,3.852,3.852,3.8533,3.8542,3.8529,3.858,3.857,3.8548,3.8514,3.8572,3.8594,3.8603,3.8483,3.8482,3.8481,3.848,0,0,3.8506,3.8508,3.8517,3.8522,3.8525,3.854,3.8567,3.8581,3.8593,3.86,3.8622,3.8647,3.8627,3.8634,3.8621,3.8642,3.8698,3.8618,3.8618,3.8633,3.8755,3.8772,3.8782,3.8685,3.8687,3.8688,3.8755,0,3.857,3.8616,3.8602,3.8648,3.8668,3.8642,3.8665,3.867,3.8666,3.8682,3.8677,3.8695,3.8668,3.8672,3.8692,3.8687,3.8722,3.8682,3.8705,3.8706,3.8705,3.8794,3.881,3.8874,3.8764,3.8765,3.8766,0,3.865,3.8661,3.871,3.8711,3.8719,3.874,3.8753,3.8769,3.8774,3.877,3.8778,3.8762,3.8788,3.8755,3.8792,3.8765,3.8774,3.8774,3.8776,3.8777,3.8739,3.8797,3.8893,3.8903,3.8779,3.8778,3.8777,0,3.8712,3.874,3.8773,3.8777,3.878,3.8796,3.8797,3.8801,3.8811,3.8822,3.8829,3.8843,3.885,3.8862,3.885,3.8827,3.8889,3.8854,3.8886,3.8887,3.89,3.8899,3.8999,3.8906,3.8906,3.8906,3.8906,0,3.8784,3.8815,3.8801,3.8821,3.8855,3.884,3.8874,3.8873,3.8877,3.8896,3.8875,3.8894,3.8877,3.8895,3.8886,3.8918,3.8922,3.8919,3.8916,3.8921,3.8921,3.8926,3.8921,3.8908,3.8908,3.8907,3.8907,0,3.8859,3.8851,3.8885,3.8886,3.8887,3.8912,3.8912,3.8931,3.8926,3.8951,3.8956,3.8948,3.8968,3.8958,3.8978,3.8972,3.9014,3.9005,3.9013,3.901,3.9043,3.904,3.9149,3.9162,3.9061,3.9062,3.9063,0,3.8906,3.8929,3.8933,3.8945,3.8948,3.8968,3.8978,3.8964,3.8976,3.8985,3.9003,3.9022,3.9035,3.9068,3.9064,3.908,3.9071,3.9109,3.9074,3.9078,3.9072,3.9071,3.9073,3.9115,3.9117,3.9118,3.9118,0,3.8989,3.8985,3.9001,3.9016,3.903,3.9041,3.905,3.9061,3.9048,3.9062,3.9083,3.9094,3.9115,3.9134,3.9148,3.915,3.9132,3.913,3.9138,3.9143,3.9146,3.9145,3.9032,3.9127,3.9126,3.9126,3.9125,3.9125,3.9051,3.9071,3.9078,3.9097,3.9103,3.9112,3.9131,3.9129,3.9146,3.9163,3.9154,3.9178,3.9184,3.9201,3.9206,3.9224,3.9209,3.9221,3.9224,3.9227,3.9232,3.9144,3.9227,3.9227,3.9226,3.9226,3.9226,0,3.9134,3.9137,3.9155,3.917,3.9185,3.9168,3.9178,3.9192,3.9214,3.9221,3.9236,3.926,3.9279,3.9277,3.9294,3.9309,3.9302,3.9314,3.9313,3.9314,3.9244,3.9235,3.932,3.932,3.932,3.932,3.932,3.932,3.9179,3.9212,3.9209,3.9245,3.9248,3.9272,3.9279,3.9289,3.9295,3.9323,3.9338,3.9337,3.9341,3.9359,3.9375,3.9374,3.9381,3.9397,3.9393,3.9328,3.9318,3.931,3.9301,3.9399,3.9399,3.9461,3.9462,3.9462]}]]